Regional Weather Roundup
Issued by NWS Newport/Morehead, NC

Current Version | Previous Version | Graphics & Text | Print | Product List | Glossary On
Versions: 1 2 3 4 5 6 7 8 9 10 11 12 13 14 15 16 17 18 19 20 21 22 23 24 25 26 27 28 29 30 31 32 33 34 35 36 37 38 39 40 41 42 43 44 45 46 47 48 49 50
000 ASUS42 KMHX 221026 RWRMHX WEATHER ROUNDUP FOR EASTERN NORTH CAROLINA NATIONAL WEATHER SERVICE NEWPORT/MOREHEAD CITY NC 600 AM EDT SUN APR 22 2018 NOTE: "FAIR" INDICATES FEW OR NO CLOUDS BELOW 12,000 FEET WITH NO SIGNIFICANT WEATHER AND/OR OBSTRUCTIONS TO VISIBILITY NCZ015>017-031-032-045>047-102-103-221100- NORTH COAST CITY SKY/WX TMP DP RH WIND PRES REMARKS EDENTON FAIR 43 40 91 CALM 30.39S ELIZABETH CITY FAIR 44 39 82 CALM 30.39S KITTY HAWK FAIR 45 38 78 CALM 30.39R MANTEO FAIR 40 37 90 E3 30.40S $$ NCZ045>047-081-094-103-104-221100- CENTRAL COAST CITY SKY/WX TMP DP RH WIND PRES REMARKS FRISCO FAIR 50 43 77 NE6 30.38R $$ NCZ095-097-098-100-101-221100- SOUTHERN COAST CITY SKY/WX TMP DP RH WIND PRES REMARKS BEAUFORT FAIR 48 46 93 E3 30.36R CEDAR ISLAND NOT AVBL JACKSONVILLE FAIR 46 42 86 CALM 30.35S PINEY ISLAND NOT AVBL WILMINGTON FAIR 48 45 89 NE3 30.34R $$ NCZ011>013-027>030-043-044-078>080-089-090>093-098-221100- COASTAL PLAIN CITY SKY/WX TMP DP RH WIND PRES REMARKS AHOSKIE FAIR 38 38 100 CALM 30.39R CLINTON FAIR 46 44 91 CALM 30.36R ELIZABETHTOWN FAIR 44 41 91 MISG 30.34S GOLDSBORO FAIR 43 40 87 CALM 30.35R GREENVILLE FAIR 41 41 100 CALM 30.37S HAVELOCK NOT AVBL KENANSVILLE FAIR 37 37 100 CALM 30.36S FOG KINSTON FAIR 40 39 97 CALM 30.38R NEW BERN FAIR 43 42 97 CALM 30.37S RICHLANDS FAIR 41 39 93 CALM 30.36S ROCKY MOUNT FAIR 41 40 96 CALM 30.37S WASHINGTON FAIR 42 40 93 CALM 30.39R WHITEVILLE FAIR 44 43 97 CALM 30.33R $$ AMZ130-135-150-152-154-156-158-170-250-252-270-ANZ085-086-088-633-658-670-221100- MARINE OBSERVATIONS STATION/POSITION TIME TEMP WIND PRES WAVE SWELL AIR SEA DIR/SP/G HT/PER HT/PER (UTC) (F) (DEG/KT/KT) (MB) (FT/S) (FT/S) CHESAPEAKE LIGHT NOT AVBL 64 E VA BEACH 0950 48 48 310/ 4/ 4 1029.6 2/ 6 2/ 6 DUCK 1000 50 53 130/ 5/ 5 1028.7 2 E DUCK 1000 52 N/A 2/ 6 OREGON INLET 0954 48 54 40/ 3/ 4 1029.0 13E OREGON INLT 0948 51 N/A 2/ 6 2/ 6 HATTERAS CG 1000 53 61 60/ 5/ 6 1028.4 DIAMOND BUOY 1010 58 74 10/ 10/ 14 1028.8 CAPE LOOKOUT 1000 70/ 8/ 9 1028.0 BEAUFORT LAB 1000 53 63 50/ 4/ 5 1028.0 30 SE NEW RVR IN 1008 63 65 80/ 10/ 14 1027.4 30 SE NEW RVR IN 1000 65 N/A 3/ 8 27 SE WRIGHTSVLE 1008 64 65 80/ 10/ 16 1026.9 5 SE WRIGHTSVLE 1008 61 60 70/ 8/ 12 1026.8 225 S CAPE HAT 1010 65 72 60/ 12/ 16 1025.7 41 SE CHARLESTON 1010 67 67 100/ 10/ 14 1025.0 $$

USA.gov is the U.S. government's official web portal to all federal, state and local government web resources and services.